FW4092 Weather Reports


time (UTC)temp
C
wind
direction
speed
KPH
gust
KPH
rain 1hr
cm
rain 24hr
cm
rain mn
cm
humidity
%
barometer
mb
20260831035839 18 13 0.0 0.0 0.00 0.00 0.00 33 1013.3
20260831035833 18 13 0.0 0.0 0.00 0.00 0.00 33 1013.3
20260831034821 18 13 0.0 1.6 0.00 0.00 0.00 32 1013.2
20260831034316 18 13 0.0 1.6 0.00 0.00 0.00 32 1013.2
20260831033807 19 13 0.0 1.6 0.00 0.00 0.00 32 1013.2
20260831033302 19 13 0.0 1.6 0.00 0.00 0.00 31 1013.0
20260831032801 20 13 0.0 1.6 0.00 0.00 0.00 30 1013.0
20260831032258 20 13 0.0 3.2 0.00 0.00 0.00 29 1013.0
20260831032252 20 13 0.0 1.6 0.00 0.00 0.00 30 1013.0
20260831031241 20 13 0.0 3.2 0.00 0.00 0.00 29 1012.9
20260831030732 21 13 0.0 3.2 0.00 0.00 0.00 28 1012.9
20260831030225 21 13 1.6 8.0 0.00 0.00 0.00 28 1012.9
20260831030154 21 13 1.6 8.0 0.00 0.00 0.00 28 1012.9
20260831024941 22 9 1.6 8.0 0.00 0.00 0.00 26 1012.7
20260831024426 22 5 1.6 9.7 0.00 0.00 0.00 25 1012.7
20260831023703 22 5 1.6 9.7 0.00 0.00 0.00 24 1012.7
20260831023425 23 41 3.2 9.7 0.00 0.00 0.00 23 1012.7
20260831022906 23 0 1.6 9.7 0.00 0.00 0.00 22 1012.7
20260831022653 23 0 1.6 9.7 0.00 0.00 0.00 22 1012.7
20260831022140 23 44 3.2 9.7 0.00 0.00 0.00 22 1012.7
20260831021632 24 52 3.2 11.3 0.00 0.00 0.00 21 1012.8
20260831021130 24 5 3.2 12.9 0.00 0.00 0.00 21 1012.8
20260831020859 25 19 3.2 12.9 0.00 0.00 0.00 21 1012.7
20260831020115 25 24 3.2 8.0 0.00 0.00 0.00 20 1012.8
20260831015610 25 33 3.2 11.3 0.00 0.00 0.00 19 1012.8
20260831015104 25 53 3.2 9.7 0.00 0.00 0.00 19 1012.7
20260831014600 25 30 3.2 12.9 0.00 0.00 0.00 18 1012.7
20260831014057 26 5 3.2 12.9 0.00 0.00 0.00 19 1012.8
20260831013551 26 33 3.2 11.3 0.00 0.00 0.00 19 1012.8
20260831013038 26 36 3.2 11.3 0.00 0.00 0.00 18 1012.7
20260831012534 26 42 3.2 8.0 0.00 0.00 0.00 18 1012.6
20260831012031 26 38 4.8 14.5 0.00 0.00 0.00 17 1012.6
20260831011517 26 0 4.8 14.5 0.00 0.00 0.00 16 1012.7
20260831011016 26 0 3.2 9.7 0.00 0.00 0.00 16 1012.8
20260831010510 26 37 3.2 8.0 0.00 0.00 0.00 16 1012.9
20260831010237 26 52 4.8 12.9 0.00 0.00 0.00 16 1012.9
20260831005458 26 49 3.2 12.9 0.00 0.00 0.00 15 1012.9
20260831005043 27 41 3.2 8.0 0.00 0.00 0.00 16 1012.9
20260831004810 27 46 3.2 11.3 0.00 0.00 0.00 16 1012.9
20260831003433 26 80 3.2 8.0 0.00 0.00 0.00 15 1012.8
20260831003207 26 74 3.2 9.7 0.00 0.00 0.00 15 1013.0
20260831002427 26 78 1.6 9.7 0.00 0.00 0.00 15 1013.0
20260831001925 26 275 1.6 4.8 0.00 0.00 0.00 14 1013.0
20260831001425 26 259 3.2 6.4 0.00 0.00 0.00 13 1012.9
20260831000924 26 111 3.2 6.4 0.00 0.00 0.00 13 1013.0
20260831000425 26 84 3.2 9.7 0.00 0.00 0.00 13 1012.9
20260830235928 26 75 3.2 9.7 0.00 0.00 0.00 14 1013.0
20260830235425 26 91 3.2 8.0 0.00 0.00 0.00 14 1013.0
20260830234925 26 5 3.2 8.0 0.00 0.00 0.00 12 1013.0
20260830234713 26 323 3.2 9.7 0.00 0.00 0.00 12 1013.1
20260830233925 26 325 3.2 9.7 0.00 0.00 0.00 13 1013.2
20260830233425 26 96 1.6 9.7 0.00 0.00 0.00 12 1013.3
20260830232925 26 96 3.2 11.3 0.00 0.00 0.00 12 1013.4
20260830232425 26 80 4.8 14.5 0.00 0.00 0.00 11 1013.4
20260830231927 26 125 3.2 14.5 0.00 0.00 0.00 13 1013.5
20260830231425 26 46 3.2 12.9 0.00 0.00 0.00 16 1013.6
20260830230925 26 26 3.2 11.3 0.00 0.00 0.00 16 1013.5
20260830230424 26 60 3.2 11.3 0.00 0.00 0.00 18 1013.6
20260830230204 26 148 3.2 11.3 0.00 0.00 0.00 19 1013.8
20260830225416 25 68 3.2 11.3 0.00 0.00 0.00 20 1013.8
20260830224911 25 109 3.2 9.7 0.00 0.00 0.00 20 1013.8
20260830224404 25 14 1.6 11.3 0.00 0.00 0.00 21 1013.9
20260830223900 25 19 3.2 11.3 0.00 0.00 0.00 22 1014.0
20260830223352 25 59 4.8 11.3 0.00 0.00 0.00 22 1014.1
20260830222847 25 130 4.8 11.3 0.00 0.00 0.00 22 1014.2
20260830222340 25 132 3.2 11.3 0.00 0.00 0.00 22 1014.2
20260830221834 25 104 3.2 11.3 0.00 0.00 0.00 23 1014.2
20260830221330 25 99 3.2 9.7 0.00 0.00 0.00 24 1014.2
20260830220824 24 92 1.6 9.7 0.00 0.00 0.00 24 1014.3
20260830220316 24 89 1.6 8.0 0.00 0.00 0.00 24 1014.4
20260830220054 23 82 3.2 9.7 0.00 0.00 0.00 25 1014.4
20260830215305 23 86 3.2 9.7 0.00 0.00 0.00 25 1014.5
20260830214757 23 104 4.8 12.9 0.00 0.00 0.00 26 1014.5
20260830214253 23 335 4.8 12.9 0.00 0.00 0.00 26 1014.6
20260830213744 23 341 3.2 11.3 0.00 0.00 0.00 26 1014.7
20260830213241 23 50 1.6 6.4 0.00 0.00 0.00 26 1014.8
20260830212732 23 90 3.2 9.7 0.00 0.00 0.00 27 1015.0
20260830212226 23 40 4.8 12.9 0.00 0.00 0.00 27 1015.1
20260830211722 23 26 3.2 16.1 0.00 0.00 0.00 27 1015.2
20260830211214 23 75 3.2 16.1 0.00 0.00 0.00 28 1015.2
20260830210708 23 130 3.2 9.7 0.00 0.00 0.00 27 1015.2
20260830210202 23 124 3.2 9.7 0.00 0.00 0.00 27 1015.3
20260830205656 23 143 3.2 11.3 0.00 0.00 0.00 27 1015.3
20260830205432 23 130 3.2 11.3 0.00 0.00 0.00 28 1015.3
20260830204643 22 182 3.2 8.0 0.00 0.00 0.00 28 1015.4
20260830204138 22 121 3.2 12.9 0.00 0.00 0.00 28 1015.5
20260830203633 22 114 3.2 12.9 0.00 0.00 0.00 29 1015.6
20260830203126 22 202 3.2 8.0 0.00 0.00 0.00 30 1015.5
20260830202620 22 110 3.2 9.7 0.00 0.00 0.00 30 1015.5
20260830202117 21 70 3.2 9.7 0.00 0.00 0.00 34 1015.6
20260830201608 21 342 3.2 9.7 0.00 0.00 0.00 32 1015.7
20260830201102 21 198 3.2 9.7 0.00 0.00 0.00 32 1015.7
20260830200556 21 161 3.2 9.7 0.00 0.00 0.00 32 1015.6
20260830200050 21 163 3.2 8.0 0.00 0.00 0.00 33 1015.7
20260830195544 21 116 1.6 12.9 0.00 0.00 0.00 34 1015.7
20260830195044 21 177 1.6 12.9 0.00 0.00 0.00 35 1015.8
20260830194532 20 142 1.6 12.9 0.00 0.00 0.00 34 1015.9
20260830194028 20 130 3.2 12.9 0.00 0.00 0.00 34 1016.0
20260830193523 20 134 3.2 12.9 0.00 0.00 0.00 35 1016.0
20260830193051 21 101 1.6 11.3 0.00 0.00 0.00 35 1016.3
20260830193032 21 142 1.6 11.3 0.00 0.00 0.00 34 1016.1
20260830192015 20 92 3.2 12.9 0.00 0.00 0.00 37 1016.4
20260830191512 20 105 3.2 12.9 0.00 0.00 0.00 37 1016.4
20260830191022 20 114 3.2 11.3 0.00 0.00 0.00 38 1016.4
20260830190513 20 320 3.2 11.3 0.00 0.00 0.00 37 1016.4
20260830190012 20 88 3.2 11.3 0.00 0.00 0.00 37 1016.6
20260830185512 20 140 3.2 12.9 0.00 0.00 0.00 37 1016.6
20260830185014 20 146 4.8 12.9 0.00 0.00 0.00 37 1016.7
20260830184510 19 101 3.2 11.3 0.00 0.00 0.00 39 1016.6
20260830184014 19 109 3.2 9.7 0.00 0.00 0.00 41 1016.6
20260830183758 18 147 3.2 11.3 0.00 0.00 0.00 40 1016.6
20260830183010 18 105 4.8 11.3 0.00 0.00 0.00 41 1016.6
20260830182759 18 93 4.8 12.9 0.00 0.00 0.00 42 1016.7
20260830182014 18 190 3.2 14.5 0.00 0.00 0.00 43 1016.7
20260830181512 18 104 3.2 16.1 0.00 0.00 0.00 44 1016.7
20260830181015 18 90 4.8 16.1 0.00 0.00 0.00 44 1016.7
20260830180504 18 137 3.2 12.9 0.00 0.00 0.00 44 1016.8
20260830180243 17 118 3.2 12.9 0.00 0.00 0.00 45 1016.8
20260830175506 17 94 3.2 9.7 0.00 0.00 0.00 46 1016.9
20260830175004 17 190 1.6 8.0 0.00 0.00 0.00 47 1017.0
20260830174503 16 166 1.6 9.7 0.00 0.00 0.00 48 1017.0
20260830174004 16 142 3.2 9.7 0.00 0.00 0.00 49 1017.0
20260830173745 16 175 3.2 16.1 0.00 0.00 0.00 49 1017.1
20260830173009 16 165 3.2 9.7 0.00 0.00 0.00 50 1017.1
20260830173004 16 196 3.2 16.1 0.00 0.00 0.00 49 1017.0
20260830172003 15 113 3.2 12.9 0.00 0.00 0.00 51 1017.0
20260830171504 15 113 3.2 12.9 0.00 0.00 0.00 52 1017.0
20260830171003 15 170 1.6 11.3 0.00 0.00 0.00 53 1017.1
20260830170540 14 176 3.2 11.3 0.00 0.00 0.00 54 1017.1
20260830170520 14 114 3.2 8.0 0.00 0.00 0.00 54 1017.1
20260830165514 14 184 3.2 11.3 0.00 0.00 0.00 54 1017.3
20260830165005 14 131 3.2 9.7 0.00 0.00 0.00 55 1017.2
20260830164501 13 144 3.2 9.7 0.00 0.00 0.00 56 1017.2
20260830163959 13 147 3.2 11.3 0.00 0.00 0.00 58 1017.3
20260830163458 13 181 3.2 11.3 0.00 0.00 0.00 58 1017.5
20260830163002 12 107 3.2 11.3 0.00 0.00 0.00 59 1017.6
20260830162545 12 153 3.2 11.3 0.00 0.00 0.00 60 1017.6
20260830162306 12 143 3.2 11.3 0.00 0.00 0.00 61 1017.6
20260830161218 11 140 3.2 11.3 0.00 0.00 0.00 64 1017.6
20260830160439 10 155 3.2 8.0 0.00 0.00 0.00 64 1017.8
20260830155940 10 143 3.2 11.3 0.00 0.00 0.00 65 1017.8
20260830155427 10 178 1.6 11.3 0.00 0.00 0.00 65 1017.9
20260830154921 10 159 3.2 9.7 0.00 0.00 0.00 66 1017.9
20260830154701 9 151 3.2 8.0 0.00 0.00 0.00 67 1017.8
20260830153910 9 150 1.6 6.4 0.00 0.00 0.00 68 1017.8
20260830153642 8 144 1.6 9.7 0.00 0.00 0.00 69 1017.9
20260830153126 8 143 1.6 9.7 0.00 0.00 0.00 70 1017.9
20260830152352 7 144 1.6 6.4 0.00 0.00 0.00 71 1018.0
20260830152119 7 139 3.2 11.3 0.00 0.00 0.00 72 1018.0
20260830151616 7 142 3.2 11.3 0.00 0.00 0.00 73 1018.0
20260830150834 6 142 3.2 8.0 0.00 0.00 0.00 74 1018.0
20260830150327 6 135 3.2 9.7 0.00 0.00 0.00 74 1017.9
20260830145821 6 135 3.2 9.7 0.00 0.00 0.00 75 1018.0
20260830145315 6 148 3.2 11.3 0.00 0.00 0.00 77 1017.9
20260830145039 5 146 3.2 11.3 0.00 0.00 0.00 78 1018.0
20260830144756 5 156 3.2 8.0 0.00 0.00 0.00 79 1018.0
20260830143756 4 143 1.6 11.3 0.00 0.00 0.00 80 1018.0
20260830143253 4 150 1.6 11.3 0.00 0.00 0.00 82 1017.9
20260830142745 3 148 3.2 11.3 0.00 0.00 0.00 82 1017.9
20260830142241 3 140 4.8 11.3 0.00 0.00 0.00 82 1017.8
20260830141733 3 146 4.8 11.3 0.00 0.00 0.00 82 1017.8
20260830141227 3 155 3.2 9.7 0.00 0.00 0.00 83 1017.7
20260830140721 3 157 3.2 8.0 0.00 0.00 0.00 83 1017.6
20260830140215 3 130 3.2 8.0 0.00 0.00 0.00 84 1017.6
20260830135710 3 145 3.2 8.0 0.00 0.00 0.00 85 1017.6
20260830135444 3 142 3.2 8.0 0.00 0.00 0.00 86 1017.5
20260830134700 2 144 3.2 8.0 0.00 0.00 0.00 86 1017.6
20260830134151 2 136 3.2 6.4 0.00 0.00 0.00 86 1017.5
20260830133929 2 87 3.2 6.4 0.00 0.00 0.00 86 1017.6
20260830133139 2 74 3.2 6.4 0.00 0.00 0.00 86 1017.5
20260830132637 2 69 3.2 4.8 0.00 0.00 0.00 87 1017.5
20260830132127 2 62 1.6 4.8 0.00 0.00 0.00 87 1017.5
20260830131624 2 55 0.0 3.2 0.00 0.00 0.00 88 1017.5
20260830131132 2 53 0.0 0.0 0.00 0.00 0.00 89 1017.5
20260830131128 2 53 0.0 0.0 0.00 0.00 0.00 89 1017.5
20260830131123 2 53 0.0 0.0 0.00 0.00 0.00 88 1017.5
20260830125557 2 53 0.0 0.0 0.00 0.00 0.00 88 1017.5
20260830125130 2 53 0.0 0.0 0.00 0.00 0.00 87 1017.3
20260830125115 2 53 0.0 0.0 0.00 0.00 0.00 88 1017.3
20260830124039 2 53 0.0 0.0 0.00 0.00 0.00 87 1017.3
20260830123539 2 53 0.0 0.0 0.00 0.00 0.00 88 1017.5
20260830123038 2 53 0.0 0.0 0.00 0.00 0.00 88 1017.3
20260830122538 2 53 0.0 0.0 0.00 0.00 0.00 87 1017.3
20260830122037 2 53 0.0 0.0 0.00 0.00 0.00 87 1017.3
20260830121537 2 53 0.0 0.0 0.00 0.00 0.00 85 1017.3
20260830121037 3 53 0.0 0.0 0.00 0.00 0.00 84 1017.5
20260830120825 3 53 0.0 0.0 0.00 0.00 0.00 85 1017.3
20260830120038 3 53 0.0 0.0 0.00 0.00 0.00 86 1017.3
20260830115538 3 53 0.0 0.0 0.00 0.00 0.00 86 1017.3
20260830115322 3 53 0.0 0.0 0.00 0.00 0.00 86 1017.3
20260830114538 3 53 0.0 0.0 0.00 0.00 0.00 86 1017.2
20260830114036 3 53 0.0 0.0 0.00 0.00 0.00 86 1017.2
20260830113545 4 53 0.0 0.0 0.00 0.00 0.00 85 1017.1
20260830113057 4 53 0.0 0.0 0.00 0.00 0.00 85 1017.0
20260830112553 4 53 0.0 0.0 0.00 0.00 0.00 83 1017.1
20260830112309 4 53 0.0 0.0 0.00 0.00 0.00 83 1017.1
20260830111536 5 53 0.0 0.0 0.00 0.00 0.00 84 1017.1
20260830111307 5 53 0.0 0.0 0.00 0.00 0.00 85 1017.1
20260830110545 5 53 0.0 0.0 0.00 0.00 0.00 84 1017.1
20260830110040 5 53 0.0 0.0 0.00 0.00 0.00 82 1017.1
20260830105531 5 53 0.0 0.0 0.00 0.00 0.00 81 1017.2
20260830105310 5 53 0.0 0.0 0.00 0.00 0.00 81 1017.1
20260830104521 6 53 0.0 3.2 0.00 0.00 0.00 81 1017.1
20260830104016 6 53 0.0 3.2 0.00 0.00 0.00 82 1017.1
20260830103508 6 53 0.0 0.0 0.00 0.00 0.00 85 1017.0
20260830103240 6 53 0.0 0.0 0.00 0.00 0.00 83 1017.0
20260830102720 6 53 0.0 0.0 0.00 0.00 0.00 81 1017.1
20260830101954 6 53 0.0 0.0 0.00 0.00 0.00 81 1017.0
20260830101724 6 53 0.0 0.0 0.00 0.00 0.00 82 1017.1
20260830100937 6 53 0.0 0.0 0.00 0.00 0.00 82 1017.0
20260830100434 6 53 0.0 0.0 0.00 0.00 0.00 80 1016.9
20260830095926 6 53 0.0 0.0 0.00 0.00 0.00 82 1017.0
20260830095704 6 53 0.0 0.0 0.00 0.00 0.00 81 1017.0
20260830095144 6 53 0.0 3.2 0.00 0.00 0.00 80 1016.9
20260830094900 6 53 0.0 3.2 0.00 0.00 0.00 79 1017.0
20260830094654 6 53 0.0 3.2 0.00 0.00 0.00 79 1017.0
20260830093900 6 52 0.0 3.2 0.00 0.00 0.00 79 1017.0
20260830093357 6 51 0.0 0.0 0.00 0.00 0.00 80 1017.0
20260830092855 7 51 0.0 3.2 0.00 0.00 0.00 79 1016.9
20260830092603 7 51 1.6 4.8 0.00 0.00 0.00 79 1016.9
20260830092353 7 51 1.6 4.8 0.00 0.00 0.00 79 1016.9
20260830091841 7 51 1.6 4.8 0.00 0.00 0.00 78 1016.9
20260830091334 7 49 0.0 4.8 0.00 0.00 0.00 78 1016.9
20260830090845 7 17 0.0 3.2 0.00 0.00 0.00 76 1016.9
20260830090058 7 11 0.0 0.0 0.00 0.00 0.00 73 1016.9
20260830085540 8 11 0.0 0.0 0.00 0.00 0.00 76 1016.9
20260830085045 8 11 0.0 1.6 0.00 0.00 0.00 78 1016.8
20260830084258 8 11 0.0 3.2 0.00 0.00 0.00 78 1016.8
20260830084039 8 11 0.0 3.2 0.00 0.00 0.00 79 1016.9
20260830083244 8 300 0.0 0.0 0.00 0.00 0.00 78 1016.9
20260830082739 7 300 0.0 0.0 0.00 0.00 0.00 77 1016.8
20260830082228 7 300 0.0 0.0 0.00 0.00 0.00 77 1016.8
20260830081724 8 300 0.0 0.0 0.00 0.00 0.00 75 1016.8
20260830081221 8 300 0.0 0.0 0.00 0.00 0.00 75 1016.7
20260830080719 8 300 0.0 0.0 0.00 0.00 0.00 75 1016.7
20260830080212 8 300 0.0 0.0 0.00 0.00 0.00 75 1016.7
20260830075938 8 300 0.0 0.0 0.00 0.00 0.00 75 1016.7
20260830075418 8 299 0.0 0.0 0.00 0.00 0.00 75 1016.7
20260830074656 8 299 0.0 0.0 0.00 0.00 0.00 75 1016.6
20260830074410 8 299 0.0 0.0 0.00 0.00 0.00 75 1016.6
20260830073640 8 299 0.0 0.0 0.00 0.00 0.00 74 1016.7
20260830073357 8 299 0.0 0.0 0.00 0.00 0.00 74 1016.6
20260830072643 8 299 0.0 0.0 0.00 0.00 0.00 74 1016.6
20260830072108 8 299 0.0 0.0 0.00 0.00 0.00 73 1016.6
20260830071107 9 299 0.0 1.6 0.00 0.00 0.00 72 1016.6
20260830070601 9 299 0.0 1.6 0.00 0.00 0.00 73 1016.6
20260830070059 9 299 0.0 1.6 0.00 0.00 0.00 73 1016.7
20260830065604 8 299 0.0 1.6 0.00 0.00 0.00 72 1016.7
20260830065058 8 299 0.0 1.6 0.00 0.00 0.00 71 1016.7
20260830064559 8 299 0.0 0.0 0.00 0.00 0.00 69 1016.8
20260830064056 9 299 0.0 0.0 0.00 0.00 0.00 69 1016.7
20260830063545 9 299 0.0 0.0 0.00 0.00 0.00 68 1016.7
20260830063053 10 299 0.0 0.0 0.00 0.00 0.00 68 1016.7
20260830062545 10 299 0.0 0.0 0.00 0.00 0.00 68 1016.7
20260830062257 10 299 0.0 0.0 0.00 0.00 0.00 68 1016.8
20260830061256 10 299 0.0 0.0 0.00 0.00 0.00 67 1016.8
20260830060043 10 299 0.0 0.0 0.00 0.00 0.00 67 1016.8
20260830055544 10 299 0.0 0.0 0.00 0.00 0.00 63 1016.8
20260830055044 10 299 0.0 0.0 0.00 0.00 0.00 64 1016.8
20260830054544 10 299 0.0 0.0 0.00 0.00 0.00 63 1016.9
20260830054044 11 299 0.0 0.0 0.00 0.00 0.00 64 1016.8
20260830053544 11 299 0.0 0.0 0.00 0.00 0.00 63 1016.8
20260830053313 11 299 0.0 0.0 0.00 0.00 0.00 62 1016.8
20260830052542 11 299 0.0 0.0 0.00 0.00 0.00 62 1016.7
20260830052306 11 299 0.0 0.0 0.00 0.00 0.00 62 1016.8
20260830051535 11 299 0.0 0.0 0.00 0.00 0.00 62 1016.7
20260830051031 11 299 0.0 0.0 0.00 0.00 0.00 61 1016.8
20260830050524 11 299 0.0 0.0 0.00 0.00 0.00 59 1016.8
20260830050255 11 299 0.0 0.0 0.00 0.00 0.00 57 1016.8
20260830045514 11 299 0.0 0.0 0.00 0.00 0.00 55 1016.8
20260830045006 11 299 0.0 0.0 0.00 0.00 0.00 56 1016.8
20260830044459 12 299 0.0 0.0 0.00 0.00 0.00 57 1016.8
20260830044232 12 299 0.0 0.0 0.00 0.00 0.00 56 1016.7
20260830043708 12 299 0.0 0.0 0.00 0.00 0.00 55 1016.8
20260830042940 12 299 0.0 1.6 0.00 0.00 0.00 55 1016.7
20260830042435 12 300 0.0 1.6 0.00 0.00 0.00 55 1016.8
20260830041929 12 296 1.6 4.8 0.00 0.00 0.00 55 1016.7
20260830041422 12 296 1.6 4.8 0.00 0.00 0.00 54 1016.5
20260830040918 12 298 1.6 6.4 0.00 0.00 0.00 53 1016.4
20260830040411 12 303 1.6 6.4 0.00 0.00 0.00 53 1016.5